Weather History for Marshfield, MA

Change the Weather History Date:

Friday, January 24, 2014

  Actual Average (KPYM) Record (KPYM)
Temperature  
Mean Temperature 12 °F -  
Max Temperature 19 °F 40 °F 61 °F (1999)
Min Temperature 6 °F 18 °F -15 °F (1970)
Degree Days  
Heating Degree Days 52    
Moisture  
Dew Point -3 °F    
Average Humidity 52    
Maximum Humidity 72    
Minimum Humidity 33    
Precipitation  
Precipitation 0.00 in - - ()
Sea Level Pressure  
Sea Level Pressure 30.20 in    
Wind  
Wind Speed 6 mph (WSW)    
Max Wind Speed 13 mph    
Max Gust Speed 22 mph    
Visibility 10 miles    
Events      
Averages and records for this station are not official NWS values.
T = Trace of Precipitation, MM = Missing Value Source: NWS Daily Summary

Daily Weather History Graph

Daily Weather History Graph

Search for Another Location

Airport:

Trip Planner

Search our weather history database for the weather conditions in past years. The results will help you decide how hot, cold, wet, or windy it might be!

Date:

Astronomy

Jan. 24, 2014 Rise Set
Actual Time 7:02 AM EST 4:47 PM EST
Civil Twilight 6:32 AM EST 5:17 PM EST
Nautical Twilight 5:58 AM EST 5:51 PM EST
Astronomical Twilight 5:25 AM EST 6:24 PM EST
Moon 12:25 AM EST (1/24) 11:04 AM EST (1/24)
Length of Visible Light 10h 44m
Length of Day
9h 44m
Last Quarter, 45% of the Moon is Illuminated
Jan 24
Last Quarter
Jan 30
New
Feb 6
First Quarter
Feb 14
Full
Feb 22
Last Quarter

Hourly Weather History & Observations

Time (EST) Temp. Windchill Dew Point Humidity Pressure Visibility Wind Dir Wind Speed Gust Speed Precip Events Conditions
12:15 AM 10.4 °F 2.2 °F -0.4 °F 62% 30.18 in 10.0 mi WSW 4.6 mph - N/A   Clear
12:35 AM 10.4 °F 2.2 °F -0.4 °F 62% 30.18 in 10.0 mi WSW 4.6 mph - N/A   Clear
12:55 AM 10.4 °F 2.2 °F -0.4 °F 62% 30.18 in 10.0 mi WSW 4.6 mph - N/A   Clear
1:15 AM 10.4 °F 2.2 °F -0.4 °F 62% 30.18 in 10.0 mi WSW 4.6 mph - N/A   Clear
1:35 AM 10.4 °F 2.2 °F -0.4 °F 62% 30.18 in 10.0 mi WSW 4.6 mph - N/A   Clear
1:55 AM 10.4 °F -0.4 °F -0.4 °F 62% 30.18 in 10.0 mi West 6.9 mph - N/A   Clear
2:15 AM 10.4 °F 4.0 °F -0.4 °F 62% 30.18 in 10.0 mi WSW 3.5 mph - N/A   Clear
2:35 AM 10.4 °F 2.2 °F -0.4 °F 62% 30.19 in 10.0 mi WSW 4.6 mph - N/A   Clear
2:55 AM 10.4 °F 2.2 °F -0.4 °F 62% 30.19 in 10.0 mi WSW 4.6 mph - N/A   Clear
3:15 AM 8.6 °F 2.0 °F -0.4 °F 67% 30.19 in 10.0 mi WSW 3.5 mph - N/A   Clear
3:35 AM 8.6 °F 0.1 °F -0.4 °F 67% 30.19 in 10.0 mi West 4.6 mph - N/A   Clear
3:55 AM 8.6 °F -1.3 °F -0.4 °F 67% 30.18 in 10.0 mi West 5.8 mph - N/A   Clear
4:15 AM 8.6 °F -1.3 °F -0.4 °F 67% 30.19 in 10.0 mi West 5.8 mph - N/A   Clear
4:35 AM 8.6 °F -1.3 °F -0.4 °F 67% 30.19 in 10.0 mi West 5.8 mph - N/A   Clear
4:55 AM 6.8 °F - -0.4 °F 72% 30.20 in 10.0 mi Calm Calm - N/A   Clear
5:15 AM 6.8 °F -2.0 °F -0.4 °F 72% 30.20 in 10.0 mi West 4.6 mph - N/A   Clear
5:35 AM 6.8 °F -2.0 °F -0.4 °F 72% 30.21 in 10.0 mi WSW 4.6 mph - N/A   Clear
5:55 AM 6.8 °F -4.8 °F -2.2 °F 67% 30.21 in 10.0 mi West 6.9 mph - N/A   Clear
6:15 AM 6.8 °F -4.8 °F -2.2 °F 67% 30.22 in 10.0 mi West 6.9 mph - N/A   Clear
6:35 AM 8.6 °F -1.3 °F -2.2 °F 62% 30.23 in 10.0 mi West 5.8 mph - N/A   Clear
6:55 AM 6.8 °F -3.5 °F -2.2 °F 67% 30.24 in 10.0 mi West 5.8 mph - N/A   Clear
7:15 AM 6.8 °F -3.5 °F -4.0 °F 61% 30.25 in 10.0 mi West 5.8 mph - N/A   Clear
7:35 AM 8.6 °F -2.6 °F -4.0 °F 57% 30.25 in 10.0 mi West 6.9 mph - N/A   Clear
7:55 AM 8.6 °F -2.6 °F -4.0 °F 57% 30.25 in 10.0 mi West 6.9 mph - N/A   Clear
8:15 AM 10.4 °F -0.4 °F -4.0 °F 52% 30.27 in 10.0 mi WSW 6.9 mph - N/A   Clear
8:35 AM 10.4 °F -3.3 °F -4.0 °F 52% 30.27 in 10.0 mi West 10.4 mph - N/A   Clear
8:55 AM 12.2 °F -1.0 °F -4.0 °F 48% 30.27 in 10.0 mi West 10.4 mph 16.1 mph N/A   Clear
9:15 AM 12.2 °F -0.2 °F -5.8 °F 45% 30.26 in 10.0 mi West 9.2 mph 20.7 mph N/A   Clear
9:35 AM 12.2 °F -1.0 °F -5.8 °F 45% 30.26 in 10.0 mi WNW 10.4 mph 16.1 mph N/A   Clear
9:55 AM 12.2 °F 0.7 °F -5.8 °F 45% 30.26 in 10.0 mi West 8.1 mph 17.3 mph N/A   Clear
10:15 AM 14.0 °F 2.0 °F -4.0 °F 45% 30.26 in 10.0 mi WNW 9.2 mph 19.6 mph N/A   Clear
10:35 AM 14.0 °F 0.5 °F -4.0 °F 45% 30.25 in 10.0 mi WNW 11.5 mph 17.3 mph N/A   Clear
10:55 AM 14.0 °F 2.9 °F -4.0 °F 45% 30.24 in 10.0 mi West 8.1 mph 19.6 mph N/A   Clear
11:15 AM 15.8 °F 2.1 °F -4.0 °F 41% 30.23 in 10.0 mi West 12.7 mph 18.4 mph N/A   Clear
11:35 AM 15.8 °F 2.7 °F -4.0 °F 41% 30.22 in 10.0 mi West 11.5 mph 21.9 mph N/A   Clear
11:55 AM 17.6 °F 7.3 °F -4.0 °F 38% 30.22 in 10.0 mi West 8.1 mph - N/A   Clear
12:15 PM 17.6 °F 6.4 °F -4.0 °F 38% 30.22 in 10.0 mi West 9.2 mph 21.9 mph N/A   Clear
12:35 PM 17.6 °F 6.4 °F -4.0 °F 38% 30.20 in 10.0 mi West 9.2 mph 17.3 mph N/A   Clear
12:55 PM 17.6 °F 7.3 °F -5.8 °F 35% 30.20 in 10.0 mi West 8.1 mph 16.1 mph N/A   Clear
1:15 PM 17.6 °F 6.4 °F -5.8 °F 35% 30.19 in 10.0 mi West 9.2 mph - N/A   Clear
1:35 PM 19.4 °F 6.6 °F -5.8 °F 33% 30.19 in 10.0 mi West 12.7 mph 18.4 mph N/A   Clear
1:55 PM 19.4 °F 7.2 °F -5.8 °F 33% 30.19 in 10.0 mi West 11.5 mph 16.1 mph N/A   Clear
2:15 PM 19.4 °F 6.6 °F -5.8 °F 33% 30.19 in 10.0 mi West 12.7 mph 18.4 mph N/A   Clear
2:35 PM 19.4 °F 8.6 °F -4.0 °F 36% 30.19 in 10.0 mi West 9.2 mph 17.3 mph N/A   Clear
2:55 PM 19.4 °F 7.9 °F -4.0 °F 36% 30.20 in 10.0 mi West 10.4 mph 16.1 mph N/A   Clear
3:15 PM 19.4 °F 8.6 °F -5.8 °F 33% 30.19 in 10.0 mi West 9.2 mph 17.3 mph N/A   Clear
3:35 PM 19.4 °F 8.6 °F -5.8 °F 33% 30.19 in 10.0 mi West 9.2 mph - N/A   Clear
3:55 PM 19.4 °F 9.5 °F -4.0 °F 36% 30.19 in 10.0 mi SW 8.1 mph - N/A   Clear
4:15 PM 19.4 °F 9.5 °F -5.8 °F 33% 30.19 in 10.0 mi West 8.1 mph - N/A   Clear
4:35 PM 17.6 °F 10.7 °F -5.8 °F 35% 30.18 in 10.0 mi SW 4.6 mph - N/A   Clear
4:55 PM 17.6 °F 10.7 °F -5.8 °F 35% 30.18 in 10.0 mi SSW 4.6 mph - N/A   Clear
5:15 PM 14.0 °F 8.2 °F -5.8 °F 41% 30.18 in 10.0 mi SW 3.5 mph - N/A   Clear
5:35 PM 14.0 °F 8.2 °F -5.8 °F 41% 30.19 in 10.0 mi WSW 3.5 mph - N/A   Clear
5:55 PM 12.2 °F 6.1 °F -4.0 °F 48% 30.19 in 9.0 mi SSW 3.5 mph - N/A   Clear
6:15 PM 12.2 °F 6.1 °F -5.8 °F 45% 30.20 in 10.0 mi SW 3.5 mph - N/A   Clear
6:35 PM 10.4 °F 4.0 °F -4.0 °F 52% 30.20 in 10.0 mi SW 3.5 mph - N/A   Clear
6:55 PM 8.6 °F 0.1 °F -4.0 °F 57% 30.20 in 10.0 mi SSW 4.6 mph - N/A   Clear
7:15 PM 10.4 °F 4.0 °F -2.2 °F 57% 30.20 in 10.0 mi SSW 3.5 mph - N/A   Clear
7:35 PM 10.4 °F 2.2 °F -4.0 °F 52% 30.20 in 10.0 mi SW 4.6 mph - N/A   Clear
7:55 PM 8.6 °F - -0.4 °F 67% 30.20 in 10.0 mi Calm Calm - N/A   Clear
8:15 PM 8.6 °F 2.0 °F -2.2 °F 62% 30.20 in 10.0 mi SSW 3.5 mph - N/A   Clear
8:35 PM 8.6 °F - -0.4 °F 67% 30.19 in 10.0 mi Calm Calm - N/A   Clear
8:55 PM 8.6 °F 2.0 °F -2.2 °F 62% 30.19 in 10.0 mi SW 3.5 mph - N/A   Clear
9:15 PM 10.4 °F 2.2 °F -0.4 °F 62% 30.18 in 10.0 mi SSW 4.6 mph - N/A   Clear
9:35 PM 12.2 °F 6.1 °F -0.4 °F 57% 30.17 in 10.0 mi SSW 3.5 mph - N/A   Clear
9:55 PM 14.0 °F 6.5 °F -0.4 °F 53% 30.16 in 10.0 mi SSW 4.6 mph - N/A   Clear
10:15 PM 14.0 °F 8.2 °F -0.4 °F 53% 30.16 in 10.0 mi South 3.5 mph - N/A   Clear
10:35 PM 14.0 °F 8.2 °F -0.4 °F 53% 30.15 in 10.0 mi South 3.5 mph - N/A   Clear
10:55 PM 14.0 °F 6.5 °F 1.4 °F 57% 30.14 in 10.0 mi South 4.6 mph - N/A   Clear
11:15 PM 14.0 °F 8.2 °F 1.4 °F 57% 30.13 in 10.0 mi South 3.5 mph - N/A   Clear
11:35 PM 15.8 °F 8.6 °F 3.2 °F 58% 30.11 in 10.0 mi South 4.6 mph - N/A   Clear
11:55 PM 15.8 °F 8.6 °F 3.2 °F 58% 30.10 in 10.0 mi SSW 4.6 mph - N/A   Clear